Index of /20260429/WXO-DD/model_gdps/15km/12/047
Name Last modified Size Description
Parent Directory -
20260429T12Z_MSC_GDPS_AirTemp_AGL-120m_LatLon0.15_PT047H.grib2 2026-04-29 15:59 792K
20260429T12Z_MSC_GDPS_AirTemp_AGL-2m_LatLon0.15_PT047H.grib2 2026-04-29 15:59 1.0M
20260429T12Z_MSC_GDPS_AirTemp_AGL-40m_LatLon0.15_PT047H.grib2 2026-04-29 15:59 812K
20260429T12Z_MSC_GDPS_AirTemp_AGL-80m_LatLon0.15_PT047H.grib2 2026-04-29 15:59 800K
20260429T12Z_MSC_GDPS_Albedo_Sfc_LatLon0.15_PT047H.grib2 2026-04-29 15:59 238K
20260429T12Z_MSC_GDPS_ConvectivePrecip-Accum_Sfc_LatLon0.15_PT047H.grib2 2026-04-29 15:59 2.9M
20260429T12Z_MSC_GDPS_DewPointDepression_AGL-2m_LatLon0.15_PT047H.grib2 2026-04-29 15:59 764K
20260429T12Z_MSC_GDPS_DewPoint_AGL-2m_LatLon0.15_PT047H.grib2 2026-04-29 15:59 612K
20260429T12Z_MSC_GDPS_DownwardLongwaveRadiationFlux-Accum_Sfc_LatLon0.15_PT047H.grib2 2026-04-29 15:59 785K
20260429T12Z_MSC_GDPS_DownwardShortwaveRadiationFlux-Accum_Sfc_LatLon0.15_PT047H.grib2 2026-04-29 15:59 1.0M
20260429T12Z_MSC_GDPS_FreezingRain-Accum1h_Sfc_LatLon0.15_PT047H.grib2 2026-04-29 15:59 40K
20260429T12Z_MSC_GDPS_FreezingRain-Accum_Sfc_LatLon0.15_PT047H.grib2 2026-04-29 15:59 267K
20260429T12Z_MSC_GDPS_IcePellets-Accum1h_Sfc_LatLon0.15_PT047H.grib2 2026-04-29 15:59 15K
20260429T12Z_MSC_GDPS_IcePellets-Accum_Sfc_LatLon0.15_PT047H.grib2 2026-04-29 15:59 46K
20260429T12Z_MSC_GDPS_LatentHeatNetFlux_Sfc_LatLon0.15_PT047H.grib2 2026-04-29 15:59 550K
20260429T12Z_MSC_GDPS_NetLongwaveRadiationFlux-Accum_Sfc_LatLon0.15_PT047H.grib2 2026-04-29 15:59 1.1M
20260429T12Z_MSC_GDPS_NetShortwaveRadiationFlux-Accum_Sfc_LatLon0.15_PT047H.grib2 2026-04-29 15:59 1.0M
20260429T12Z_MSC_GDPS_O3MixingRatio_Sfc_LatLon0.15_PT047H.grib2 2026-04-29 16:50 2.0M
20260429T12Z_MSC_GDPS_O3_EAtm_LatLon0.15_PT047H.grib2 2026-04-29 16:50 2.5M
20260429T12Z_MSC_GDPS_PlanetaryBoundaryLayerHeight_Sfc_LatLon0.15_PT047H.grib2 2026-04-29 15:59 2.5M
20260429T12Z_MSC_GDPS_Precip-Accum1h_Sfc_LatLon0.15_PT047H.grib2 2026-04-29 15:59 3.3M
20260429T12Z_MSC_GDPS_Precip-Accum_Sfc_LatLon0.15_PT047H.grib2 2026-04-29 15:59 4.9M
20260429T12Z_MSC_GDPS_PrecipRate_Sfc_LatLon0.15_PT047H.grib2 2026-04-29 15:59 3.0M
20260429T12Z_MSC_GDPS_Pressure_MSL_LatLon0.15_PT047H.grib2 2026-04-29 15:59 824K
20260429T12Z_MSC_GDPS_Pressure_Sfc_LatLon0.15_PT047H.grib2 2026-04-29 15:59 1.1M
20260429T12Z_MSC_GDPS_RadiativeTemp_Sfc_LatLon0.15_PT047H.grib2 2026-04-29 15:59 502K
20260429T12Z_MSC_GDPS_Rain-Accum1h_Sfc_LatLon0.15_PT047H.grib2 2026-04-29 15:59 1.7M
20260429T12Z_MSC_GDPS_Rain-Accum_Sfc_LatLon0.15_PT047H.grib2 2026-04-29 15:59 3.6M
20260429T12Z_MSC_GDPS_RelativeHumidity_AGL-2m_LatLon0.15_PT047H.grib2 2026-04-29 15:59 1.1M
20260429T12Z_MSC_GDPS_Runoff-Accum_Sfc_LatLon0.15_PT047H.grib2 2026-04-29 15:59 122K
20260429T12Z_MSC_GDPS_SensibleHeatNetFlux_Sfc_LatLon0.15_PT047H.grib2 2026-04-29 15:59 656K
20260429T12Z_MSC_GDPS_Snow-Accum1h_Sfc_LatLon0.15_PT047H.grib2 2026-04-29 15:59 1.1M
20260429T12Z_MSC_GDPS_Snow-Accum_Sfc_LatLon0.15_PT047H.grib2 2026-04-29 15:59 2.0M
20260429T12Z_MSC_GDPS_SnowDepth_Sfc_LatLon0.15_PT047H.grib2 2026-04-29 15:59 1.7M
20260429T12Z_MSC_GDPS_SoilTemp_DBS-0to10cm_LatLon0.15_PT047H.grib2 2026-04-29 15:59 505K
20260429T12Z_MSC_GDPS_SoilTemp_Sfc_LatLon0.15_PT047H.grib2 2026-04-29 15:59 576K
20260429T12Z_MSC_GDPS_SoilVolumetricWaterContent_DBS-0to10cm_LatLon0.15_PT047H.grib2 2026-04-29 15:59 584K
20260429T12Z_MSC_GDPS_SoilVolumetricWaterContent_DBS-0to1cm_LatLon0.15_PT047H.grib2 2026-04-29 15:59 649K
20260429T12Z_MSC_GDPS_SpecificHumidity_AGL-120m_LatLon0.15_PT047H.grib2 2026-04-29 15:59 1.1M
20260429T12Z_MSC_GDPS_SpecificHumidity_AGL-2m_LatLon0.15_PT047H.grib2 2026-04-29 15:59 1.2M
20260429T12Z_MSC_GDPS_SpecificHumidity_AGL-40m_LatLon0.15_PT047H.grib2 2026-04-29 15:59 1.1M
20260429T12Z_MSC_GDPS_SpecificHumidity_AGL-80m_LatLon0.15_PT047H.grib2 2026-04-29 15:59 1.1M
20260429T12Z_MSC_GDPS_SpecificHumidity_Sfc_LatLon0.15_PT047H.grib2 2026-04-29 15:59 677K
20260429T12Z_MSC_GDPS_TotalCloudCover_Sfc_LatLon0.15_PT047H.grib2 2026-04-29 15:59 840K
20260429T12Z_MSC_GDPS_UVIndex-ClearSky_Sfc_LatLon0.15_PT047H.grib2 2026-04-29 16:50 1.0M
20260429T12Z_MSC_GDPS_UVIndex_Sfc_LatLon0.15_PT047H.grib2 2026-04-29 16:50 1.5M
20260429T12Z_MSC_GDPS_UpwardLongwaveRadiationFlux_NTAtm_LatLon0.15_PT047H.grib2 2026-04-29 15:59 845K
20260429T12Z_MSC_GDPS_WindDir_AGL-10m_LatLon0.15_PT047H.grib2 2026-04-29 15:59 1.3M
20260429T12Z_MSC_GDPS_WindDir_AGL-120m_LatLon0.15_PT047H.grib2 2026-04-29 15:59 1.3M
20260429T12Z_MSC_GDPS_WindDir_AGL-40m_LatLon0.15_PT047H.grib2 2026-04-29 15:59 1.4M
20260429T12Z_MSC_GDPS_WindDir_AGL-80m_LatLon0.15_PT047H.grib2 2026-04-29 15:59 1.4M
20260429T12Z_MSC_GDPS_WindDir_IsbL-0700_LatLon0.15_PT047H.grib2 2026-04-29 15:59 1.6M
20260429T12Z_MSC_GDPS_WindGust-Max_AGL-10m_LatLon0.15_PT047H.grib2 2026-04-29 15:59 2.2M
20260429T12Z_MSC_GDPS_WindGust-Min_AGL-10m_LatLon0.15_PT047H.grib2 2026-04-29 15:59 2.1M
20260429T12Z_MSC_GDPS_WindGust_AGL-10m_LatLon0.15_PT047H.grib2 2026-04-29 15:59 2.1M
20260429T12Z_MSC_GDPS_WindSpeed_AGL-10m_LatLon0.15_PT047H.grib2 2026-04-29 15:59 1.1M
20260429T12Z_MSC_GDPS_WindSpeed_AGL-120m_LatLon0.15_PT047H.grib2 2026-04-29 15:59 1.2M
20260429T12Z_MSC_GDPS_WindSpeed_AGL-40m_LatLon0.15_PT047H.grib2 2026-04-29 15:59 1.2M
20260429T12Z_MSC_GDPS_WindSpeed_AGL-80m_LatLon0.15_PT047H.grib2 2026-04-29 15:59 1.2M
20260429T12Z_MSC_GDPS_WindSpeed_IsbL-0700_LatLon0.15_PT047H.grib2 2026-04-29 15:59 1.5M
20260429T12Z_MSC_GDPS_WindU_AGL-10m_LatLon0.15_PT047H.grib2 2026-04-29 15:59 1.3M
20260429T12Z_MSC_GDPS_WindU_AGL-120m_LatLon0.15_PT047H.grib2 2026-04-29 15:59 1.0M
20260429T12Z_MSC_GDPS_WindU_AGL-40m_LatLon0.15_PT047H.grib2 2026-04-29 15:59 970K
20260429T12Z_MSC_GDPS_WindU_AGL-80m_LatLon0.15_PT047H.grib2 2026-04-29 15:59 1.0M
20260429T12Z_MSC_GDPS_WindU_IsbL-0700_LatLon0.15_PT047H.grib2 2026-04-29 15:59 1.2M
20260429T12Z_MSC_GDPS_WindV_AGL-10m_LatLon0.15_PT047H.grib2 2026-04-29 15:59 1.6M
20260429T12Z_MSC_GDPS_WindV_AGL-120m_LatLon0.15_PT047H.grib2 2026-04-29 15:59 972K
20260429T12Z_MSC_GDPS_WindV_AGL-40m_LatLon0.15_PT047H.grib2 2026-04-29 15:59 967K
20260429T12Z_MSC_GDPS_WindV_AGL-80m_LatLon0.15_PT047H.grib2 2026-04-29 15:59 972K
20260429T12Z_MSC_GDPS_WindV_IsbL-0700_LatLon0.15_PT047H.grib2 2026-04-29 15:59 1.2M